Lapse_Rate
4.8 5.6 6.1 6.2 6.0 5.9 5.8 5.7 5.8 6.0 6.2 6.0 5.9 5.6 5.6 5.7 6.0 6.5 6.3 6.3 6.6 6.9 6.8 6.5 6.0 5.6 5.0 4.9 4.9 5.0 5.4 5.6 5.6 5.2 5.0 4.7 4.4 4.7
5.9 6.3 6.6 6.3 6.1 5.8 5.8 5.7 5.5 5.6 5.5 5.6 5.5 5.1 5.3 5.9 6.4 6.6 6.8 6.7 6.4 6.5 6.8 6.7 6.6 6.4 6.0 5.5 5.2 5.2 5.2 5.5 5.6 5.5 5.3 5.2 4.8 4.8
6.3 6.5 6.8 6.6 6.1 6.4 6.1 5.9 5.5 5.4 5.1 7.0 6.2 6.0 6.3 6.7 6.8 7.0 7.1 7.1 6.9 6.6 6.5 6.7 6.8 6.9 6.8 6.5 6.1 5.7 5.7 5.5 5.7 5.7 5.5 5.6 5.4 5.2
6.5 6.7 6.7 6.5 6.6 6.5 6.5 6.3 6.2 5.9 6.0 6.7 7.1 6.9 6.8 6.9 6.9 6.8 7.0 6.9 6.4 6.2 6.2 6.3 6.8 6.9 7.1 7.0 6.9 6.5 6.3 5.9 5.8 5.8 5.7 5.6 5.7 5.6
6.6 6.6 6.6 6.6 6.6 6.5 6.5 6.5 6.4 6.4 6.4 6.6 6.9 6.7 6.6 6.6 6.7 6.2 6.1 6.0 6.3 6.5 6.6 6.5 6.4 6.6 7.2 7.3 7.3 7.0 6.8 6.6 6.2 6.0 5.8 5.8 5.9 6.2
6.6 6.7 6.7 6.7 6.6 6.6 6.5 6.5 6.5 6.5 6.5 6.4 6.5 6.3 6.0 5.4 5.2 5.4 5.5 6.0 6.5 6.7 6.6 6.4 6.3 6.8 6.8 7.3 7.5 7.4 7.2 7.0 6.8 6.4 6.1 6.0 6.1 6.3
6.7 6.7 6.8 6.8 6.6 6.6 6.5 6.5 6.4 6.5 6.4 6.2 6.2 5.7 5.4 5.1 5.5 5.9 6.0 6.1 6.7 7.0 7.0 6.8 6.4 6.2 6.2 6.7 7.2 7.5 7.5 7.5 7.1 7.0 6.4 6.6 6.2 6.3
7.0 6.9 6.8 6.7 6.7 6.6 6.5 6.4 6.4 6.4 6.3 6.0 5.8 5.6 5.3 5.0 5.5 5.8 6.4 6.8 6.9 7.1 7.2 7.0 6.6 6.4 6.0 5.9 6.5 7.3 7.7 7.8 7.6 7.4 6.9 6.9 7.0 6.5
7.0 6.9 6.8 6.7 6.6 6.5 6.5 6.5 6.5 6.3 6.2 5.9 5.7 5.1 4.9 5.5 5.9 6.1 6.4 6.9 7.1 7.2 7.1 7.1 6.9 6.7 6.3 5.7 6.8 7.0 7.4 7.8 8.0 7.8 7.2 6.9 6.7 6.1
7.0 6.8 6.7 6.6 6.4 6.4 6.4 6.4 6.5 6.3 6.1 5.8 5.6 5.5 5.3 5.4 5.9 6.3 6.7 6.9 7.0 7.0 6.9 7.0 6.8 6.7 6.7 6.5 6.7 6.8 7.1 7.6 8.1 8.0 7.5 7.2 7.1 5.8
6.9 6.8 6.6 6.3 6.3 6.3 6.3 6.3 6.4 6.3 6.0 5.8 5.7 5.6 5.5 5.7 6.1 6.7 6.9 6.9 7.2 7.3 6.9 7.0 6.9 6.9 6.8 6.7 6.7 6.8 6.9 7.2 7.6 7.9 7.6 7.2 7.2 7.0
7.0 6.7 6.5 6.4 6.2 6.2 6.2 6.2 6.3 6.3 6.2 6.0 5.7 5.6 5.5 5.4 5.9 6.4 7.0 7.0 6.8 7.2 7.2 7.1 6.9 6.6 6.9 6.8 6.8 6.7 6.6 7.0 7.4 7.7 7.6 7.3 7.0 6.9
6.9 6.7 6.4 6.2 6.1 6.2 6.2 6.1 6.3 6.4 6.3 6.0 5.7 5.6 5.6 5.8 6.0 6.3 6.6 6.7 6.9 6.7 6.6 6.6 6.3 6.3 6.4 6.3 6.4 6.6 6.3 6.9 7.4 7.5 7.6 7.4 7.2 7.2
6.9 6.6 6.4 6.3 6.2 6.3 6.3 6.1 6.2 6.4 6.2 6.0 5.7 5.7 5.7 5.9 6.1 6.3 6.5 6.5 6.5 6.7 6.5 6.2 6.4 6.5 6.5 6.4 6.2 6.3 6.3 6.8 7.2 7.1 7.3 7.2 7.1 7.0
6.8 6.6 6.5 6.4 6.3 6.3 6.5 6.4 6.3 6.3 6.2 5.9 5.7 5.8 5.9 6.0 6.2 6.2 6.5 6.4 6.4 6.5 6.5 6.4 6.4 6.5 6.5 6.4 6.0 6.0 6.3 6.7 6.9 7.0 7.0 7.1 6.9 6.9
6.9 6.7 6.6 6.5 6.5 6.5 6.4 6.5 6.3 6.2 6.2 6.0 5.8 5.8 5.9 6.1 6.3 6.3 6.5 6.7 6.7 6.6 6.5 6.5 6.4 6.3 6.2 6.1 6.0 5.8 6.0 6.3 6.9 7.0 7.1 6.9 6.9 6.8
6.9 6.8 6.8 6.6 6.5 6.4 6.3 6.3 6.3 6.2 6.1 6.0 5.9 5.8 5.9 6.1 6.2 6.4 6.4 6.5 6.5 6.6 6.5 6.4 6.3 6.1 5.8 5.5 5.8 5.9 6.0 6.1 6.5 6.7 6.8 6.8 6.7 6.8
7.1 7.0 7.0 6.9 6.8 6.7 6.6 6.4 6.4 6.3 6.1 6.0 6.0 5.9 5.9 6.0 6.1 6.3 6.3 6.3 6.2 6.1 6.1 6.0 5.9 5.7 5.5 5.4 5.5 5.6 5.7 6.0 6.2 6.3 6.4 6.5 6.4 6.4
7.2 7.2 7.2 7.1 7.1 7.0 6.9 6.7 6.6 6.5 6.3 6.1 6.0 6.0 6.0 5.9 6.0 6.1 6.2 6.2 6.1 5.9 5.7 5.7 5.7 5.7 5.6 5.5 5.4 5.4 5.5 5.7 5.8 5.8 5.9 6.1 6.2 6.2
7.3 7.4 7.3 7.3 7.4 7.3 7.2 7.0 6.9 6.6 6.4 6.3 6.1 6.0 6.0 6.0 5.9 6.0 6.1 6.1 6.1 5.9 5.8 5.6 5.6 5.6 5.8 5.8 5.5 5.4 5.4 5.4 5.4 5.5 5.6 5.7 5.8 5.9
7.4 7.4 7.4 7.5 7.5 7.5 7.5 7.4 7.3 7.1 6.8 6.5 6.3 6.1 6.0 5.9 5.9 5.9 5.9 6.1 6.1 6.1 6.1 6.0 5.9 5.8 5.7 5.6 5.5 5.5 5.6 5.6 5.6 5.5 5.5 5.5 5.5 5.6
7.4 7.4 7.5 7.5 7.5 7.6 7.6 7.6 7.6 7.5 7.3 6.9 6.6 6.4 6.2 5.9 5.9 5.9 5.9 6.0 6.0 6.1 6.1 6.1 6.0 5.9 5.8 5.7 5.6 5.6 5.6 5.7 5.7 5.7 5.7 5.7 5.8 5.9
7.4 7.5 7.5 7.5 7.5 7.5 7.6 7.7 7.7 7.7 7.7 7.4 7.0 6.6 6.4 6.2 6.0 6.0 5.9 5.8 5.9 6.0 5.9 6.0 5.9 5.9 5.8 5.7 5.7 5.7 5.6 5.6 5.5 5.5 5.5 5.5 5.6 5.8
Wind_Speed
9 9 8 8 9 9 10 10 11 14 16 16 15 19 21 22 23 25 27 28 25 20 17 20 19 16 15 17 19 21 22 22 21 20 20 22 25 25
7 10 11 10 11 10 11 11 11 13 16 14 15 16 21 22 25 26 27 26 28 28 22 17 16 14 16 17 19 21 21 22 19 19 21 21 22 24
10 11 11 12 11 11 11 12 12 13 15 16 14 16 17 16 17 22 24 25 23 26 21 10 8 13 16 16 17 20 21 20 17 15 20 20 21 24
10 10 12 11 15 14 12 14 13 14 13 20 16 14 16 17 17 17 16 23 23 23 11 7 8 14 16 17 17 18 21 21 16 14 21 20 21 24
8 11 13 13 14 12 13 13 11 11 12 13 14 13 13 13 14 14 13 14 20 24 16 15 14 15 13 17 17 17 19 21 16 15 20 13 19 18
9 11 11 12 13 14 13 13 11 11 12 12 12 12 12 12 12 11 11 11 10 17 17 10 10 14 13 15 17 16 16 19 17 12 15 5 13 7
10 10 10 10 12 12 9 12 13 11 10 12 12 12 12 11 12 11 11 10 12 10 10 9 9 10 14 12 11 6 13 17 18 10 10 3 8 9
10 10 10 10 9 15 14 15 15 14 15 12 12 13 16 13 12 10 10 11 10 8 6 9 4 6 7 8 1 8 13 18 23 10 2 10 12 5
9 10 9 8 9 11 14 17 18 16 13 14 16 14 14 14 13 13 13 11 11 9 4 8 5 7 9 11 5 6 10 14 24 14 5 4 8 6
9 10 10 11 10 11 13 15 14 14 13 10 13 15 15 15 14 12 14 14 12 10 9 9 7 8 7 13 7 7 11 8 18 10 7 3 7 4
9 9 9 11 12 16 14 14 15 13 15 17 20 22 23 22 18 10 10 10 10 10 9 9 8 8 8 8 11 10 10 5 14 13 11 9 4 1
9 9 6 6 13 17 13 12 12 12 14 14 13 13 16 14 11 11 9 9 9 9 4 4 5 5 6 6 6 8 9 6 9 7 16 11 8 8
8 7 7 11 15 16 15 10 11 14 15 11 10 10 9 9 9 7 8 8 8 10 7 6 5 5 5 4 1 3 5 5 4 4 8 8 11 9
8 7 8 15 16 15 12 14 15 13 8 8 8 8 8 9 9 10 14 12 12 10 13 8 5 7 7 6 4 2 3 5 5 4 5 9 7 6
7 9 14 14 14 11 6 11 11 7 8 7 8 8 8 9 11 10 11 13 13 13 12 12 6 8 6 6 5 4 2 4 4 5 4 5 6 8
4 7 8 9 10 8 7 5 6 6 7 7 7 8 8 9 9 9 9 7 5 6 11 14 12 9 7 7 5 4 3 1 5 6 4 4 7 9
6 6 5 5 6 5 5 5 5 6 6 6 7 8 8 8 8 9 8 8 6 6 5 0 7 9 7 6 5 6 5 4 2 4 3 6 6 6
6 6 5 5 6 6 5 6 5 6 6 7 7 7 7 8 8 8 8 7 7 7 6 5 1 4 4 5 5 4 7 5 4 4 4 4 4 5
7 6 6 6 6 6 5 5 5 5 6 6 6 7 7 8 8 7 7 7 7 7 6 5 6 3 7 6 4 3 5 5 5 5 4 3 4 3
7 7 6 6 6 5 5 5 5 5 5 6 6 6 6 7 7 7 6 7 8 7 7 5 5 7 7 5 2 2 9 2 2 2 3 2 1 4
7 7 6 6 6 5 4 4 5 5 5 5 5 5 5 6 7 7 7 8 8 6 7 6 6 6 4 2 2 4 3 6 5 3 2 4 4 5
8 8 7 6 6 6 5 5 5 5 4 4 5 5 5 5 6 7 6 7 6 6 6 6 6 5 3 4 2 2 3 4 4 7 9 6 3 1
8 8 7 6 6 6 5 5 5 4 4 4 4 5 5 5 5 5 6 6 6 6 6 6 4 3 2 2 3 2 4 5 5 5 4 6 7 6
Wind_Direction
277 287 293 301 301 308 306 299 301 300 296 300 297 302 300 301 298 296 293 290 297 294 286 287 278 274 291 304 310 308 309 297 305 313 309 267 246 241
282 298 289 302 310 302 295 296 289 284 290 296 297 303 302 299 295 291 284 284 281 276 260 272 269 274 284 294 302 309 305 301 297 315 312 297 250 239
294 288 295 302 300 302 300 296 293 292 292 295 300 303 303 297 301 299 295 289 279 266 223 226 275 297 281 280 295 303 301 302 297 316 314 306 271 235
301 297 299 304 302 298 296 297 295 295 296 293 298 302 306 304 297 299 289 289 288 281 198 228 268 279 284 271 285 298 304 299 302 310 323 311 307 227
300 305 306 308 303 306 305 301 303 297 290 287 292 297 299 295 297 292 287 290 279 276 244 237 248 250 273 268 275 286 304 295 292 307 322 311 328 205
310 308 308 307 312 318 306 304 308 300 295 292 291 293 289 292 289 291 294 293 296 297 282 274 266 258 257 252 267 276 295 302 291 288 313 304 3 135
310 308 310 333 311 301 310 309 307 299 297 292 294 293 293 303 298 304 297 292 293 294 281 267 258 251 222 214 256 299 322 307 307 271 328 20 58 12
314 315 316 312 314 309 292 293 290 289 291 292 297 298 295 294 297 301 301 296 288 300 309 270 292 284 280 268 113 309 310 322 315 230 277 14 117 114
317 317 317 311 307 320 314 301 289 287 272 281 287 293 301 300 301 293 291 289 288 289 275 296 289 287 290 288 198 260 292 319 317 201 207 45 25 102
319 317 315 322 335 332 316 304 305 299 304 311 305 305 306 307 298 291 294 290 288 270 267 273 280 280 289 280 249 258 268 297 319 188 199 121 13 47
319 318 331 321 347 321 313 313 310 308 317 312 305 295 288 289 283 290 278 274 277 277 247 252 267 277 267 268 267 212 248 265 312 216 190 172 131 23
315 323 328 334 321 323 316 313 311 319 321 318 311 302 290 288 255 260 270 268 277 282 273 253 253 254 258 231 241 242 226 200 294 231 205 190 164 178
315 320 326 336 322 318 316 304 324 319 309 314 311 313 311 312 309 295 265 262 263 274 282 262 273 284 276 296 248 239 232 163 204 196 160 168 180 211
307 318 318 329 315 314 304 333 317 304 315 314 317 320 325 322 316 307 296 281 265 265 281 255 265 261 265 277 271 227 224 218 213 194 204 179 194 239
307 316 305 306 306 296 340 313 308 335 324 324 328 327 326 317 313 319 314 267 262 255 253 260 252 255 263 258 258 248 249 190 214 202 186 211 215 214
297 312 306 282 279 282 293 330 337 343 325 318 325 325 327 331 332 338 333 330 253 244 228 234 238 237 243 249 252 252 216 228 187 198 196 217 218 225
314 295 299 312 310 322 326 334 333 344 341 335 327 332 335 336 339 340 344 343 2 12 14 138 217 218 231 244 229 226 226 218 196 149 204 213 211 215
290 293 304 304 305 314 325 329 337 339 349 331 333 335 337 335 337 340 347 349 350 354 357 356 179 174 196 228 254 261 213 213 207 196 213 243 229 224
266 290 291 296 299 301 313 320 328 344 321 337 332 339 337 332 331 342 347 348 347 345 344 348 346 340 202 194 142 33 325 188 181 202 208 213 245 277
246 272 283 287 289 294 303 312 319 324 333 334 333 337 340 331 334 340 343 342 342 337 334 343 4 2 0 11 96 88 34 16 171 186 195 191 120 71
260 265 266 271 278 283 292 292 298 301 319 319 325 329 337 334 337 339 336 337 322 336 334 336 348 321 298 291 193 140 89 35 29 359 181 216 203 191
257 262 262 263 265 270 274 279 276 285 298 308 326 322 329 328 334 331 337 333 339 337 327 325 324 317 276 281 67 109 153 138 95 64 55 36 358 261
247 249 252 250 248 250 258 268 270 282 286 300 307 319 325 318 333 329 327 331 333 336 337 326 324 314 344 358 347 69 126 181 172 170 120 49 59 72